Location: B�n�vent
(46.1184°N, 1.6267°E)
Time: 17:06:33
(UTC+00:00)

Daily predictions for brighter satellites

Satellite Brightness Start Highest point End
(mag) Time Altitude Azimuth Time Altitude Azimuth Time Altitude Azimuth
Cosmos 2233 Rocket 4.4 16:31:24 10° SSW 16:37:31 68° W 16:43:43 10° N
Lacrosse 5 rocket 3.1 16:38:49 10° NW 16:41:29 18° N 16:44:16 10° NE
ATLAS 2AS CENTAUR R/B 4.0 16:36:31 10° WSW 16:43:44 38° NW 16:50:43 10° NNE
SL-16 R/B 4.5 16:41:26 10° WNW 16:44:16 14° NW 16:47:07 10° N
USA 276 2.8 16:41:33 10° WNW 16:44:31 39° N 16:47:30 10° ENE
Cosmos-2242 4.0 16:41:00 10° SSW 16:45:11 49° WNW 16:49:22 10° N
ATLAS CENTAUR R/B 4.3 16:35:19 10° SSW 16:45:51 35° SE 16:50:42 10° ENE
SJ 16-02 1.3 16:45:43 10° NNW 16:50:07 75° ENE 16:54:29 10° SSE
Okean 3 Rocket 3.6 16:49:05 10° N 16:53:38 88° E 16:58:07 10° S
Cosmos 1500 Rocket 4.4 16:50:22 10° NNE 16:54:16 29° ENE 16:58:07 10° SE
Cosmos 2034 Rocket 4.3 16:49:07 10° SSE 16:54:53 44° E 17:00:40 10° NNE
CORIOLIS 4.2 16:54:30 10° SSE 16:59:46 57° ENE 17:05:04 10° N
USA 306 3.3 16:55:50 10° WSW 17:00:01 54° NNW 17:04:00 11° NE
NOSS 2-1 (C) 3.5 16:57:19 10° SW 17:00:30 49° NW 17:03:45 10° NNE
NOSS 3-1 (A) 4.3 16:53:52 10° NNW 17:00:50 47° NE 17:09:00 10° ESE
CZ-2D R/B 4.0 16:57:55 10° SE 17:01:18 30° ENE 17:04:40 10° N
Spot 1 4.5 16:57:50 10° NNE 17:02:24 78° WNW 17:07:13 10° SSW
USA 234 3.6 16:57:07 10° SE 17:03:39 73° SW 17:10:12 10° NW
NOSS 3-1 (C) 4.1 16:56:50 10° NW 17:04:10 68° NE 17:12:48 10° SE
Aureole 3 4.5 16:59:43 10° S 17:05:08 87° W 17:11:58 10° N
SL-08 R/B 3.9 17:01:12 10° N 17:05:53 59° WNW 17:10:28 10° SSW
Iridium 2 3.9 17:02:20 10° N 17:06:06 72° W 17:09:49 10° S
Cosmos 1842 Rocket 3.7 17:02:13 10° S 17:06:33 57° E 17:10:58 10° NNE
Cosmos 1833 Rocket 3.7 17:03:19 10° SSE 17:07:48 25° ESE 17:11:51 12° NE
NOSS 2-1 (D) 3.9 17:06:45 10° WSW 17:09:51 40° NW 17:13:02 10° NNE
Meteor 2-2 Rocket 4.4 17:04:01 10° S 17:10:03 86° E 17:16:06 10° NNE
PSLV R/B 3.9 17:09:38 10° SE 17:13:09 46° ENE 17:16:43 10° N
CZ-4B R/B 3.7 17:08:44 10° SE 17:13:41 37° ENE 17:18:34 10° N
Sich 1 4.1 17:12:52 10° NNE 17:16:16 22° ENE 17:19:40 10° ESE
USA 307 3.5 17:12:21 10° W 17:16:31 49° NNW 17:19:51 15° NE
Cosmos 1939 Rocket 3.0 17:12:36 10° SSE 17:16:45 85° W 17:20:53 10° NNW
ERBS 2.4 17:13:56 10° WSW 17:17:06 65° NW 17:19:27 17° NE
SMAP 3.0 17:12:51 10° SSE 17:17:31 89° ENE 17:22:12 10° NNW
ARGOS 3.8 17:13:16 10° SE 17:18:00 32° ENE 17:22:44 10° N
Cosmos 1606 2.9 17:15:13 10° SSW 17:18:57 72° W 17:22:45 10° N
H-2A R/B 2.2 17:14:29 10° SE 17:19:31 49° ENE 17:24:26 10° N
Cosmos 1898 Rocket 4.0 17:14:56 10° N 17:19:51 38° ENE 17:24:42 10° SE
MOS 1-B Rocket 4.3 17:16:18 10° NNE 17:21:47 43° E 17:27:50 10° S
COSMOS 2455 4.2 17:20:06 10° SSE 17:24:06 19° ESE 17:25:53 17° E
ATLAS CENTAUR R/B 3.0 17:21:26 10° WSW 17:25:07 30° NW 17:29:04 10° NNE
Cosmos 468 Rocket 4.4 17:21:23 10° S 17:26:10 41° ESE 17:30:21 13° NE
Cosmos 2221 2.6 17:21:56 10° SSW 17:26:12 77° W 17:30:30 10° N
Cosmos 44 3.1 17:23:22 10° NNW 17:28:13 75° NE 17:32:44 10° SE
COSMO-SKYMED 1 3.2 17:29:13 14° NE 17:32:34 35° E 17:36:33 10° SSE
Cosmos 2026 Rocket 4.1 17:28:46 10° N 17:34:45 48° ENE 17:40:37 10° SSE
Cosmos 540 Rocket 4.3 17:30:34 10° SSE 17:34:56 29° E 17:37:03 22° ENE
deb Chang Zheng 4 3.8 17:32:07 10° SE 17:36:14 46° ENE 17:40:23 10° N
Cosmos 2195 Rocket 4.5 17:30:52 10° N 17:36:55 59° ENE 17:43:01 10° SSE
CZ-2C R/B 2.9 17:33:51 10° NNE 17:38:51 43° E 17:43:45 10° S
USA 308 3.8 17:34:50 10° W 17:38:51 39° NNW 17:41:12 21° NE
Okean O Rocket 1.9 17:36:19 10° SE 17:40:30 43° ENE 17:44:44 10° N
Cosmos 1500 4.1 17:37:25 10° NNE 17:44:45 - SE 17:40:06 27° NE
Meteor 1-25 Rocket 4.1 17:38:21 10° N 17:43:55 71° ENE 17:49:28 10° SSE
ISS -2.6 17:41:04 10° WNW 17:44:09 31° N 17:44:55 27° NNE
CZ-4C R/B 3.6 17:40:03 10° NNW 17:46:13 34° NE 17:49:48 23° ENE
Meteor 2-21 4.5 17:40:19 10° N 17:46:18 53° ENE 17:52:11 10° SSE
YAOGAN 1 4.1 17:50:22 19° NNE 17:50:22 19° NNE 17:52:06 10° N
MOS 1-B 4.4 17:46:37 10° SSE 17:52:24 85° WSW 17:58:13 10° NNW
CZ-4 R/B 3.7 18:00:22 11° N 18:00:22 11° N 18:00:39 10° N
Cosmos 2084 3.4 17:53:33 10° NW 17:57:49 62° NE 17:59:42 32° ESE
Cosmos 2322 Rocket 4.2 17:56:23 10° N 17:57:36 12° NNE 17:57:36 12° NNE
Cosmos 2369 3.9 17:53:38 10° NNW 17:59:10 47° ENE 18:02:24 23° ESE
GEOS 3 Rocket 3.5 17:56:54 14° SE 18:01:20 70° NE 18:06:32 10° NW
Cosmos 1782 2.8 17:57:44 10° S 18:01:38 56° E 18:02:36 43° NE
Cosmos 1743 Rocket 4.0 17:57:32 10° NNW 18:01:49 62° W 18:06:04 10° S
Cosmos 1697 Rocket 2.5 18:01:49 10° NNW 18:07:28 77° ENE 18:13:05 10° SSE
Cosmos 1763 Rocket 3.4 18:02:39 10° SSW 18:07:42 85° WNW 18:11:17 20° NNE
Cosmos 1937 Rocket 3.4 18:02:31 10° NNW 18:07:50 68° ENE 18:13:07 10° SSE
USA 305 4.0 18:04:38 10° WNW 18:08:26 31° N 18:09:22 28° NNE
Cosmos 841 Rocket 3.7 18:04:29 10° S 18:09:23 45° ESE 18:10:09 42° E
Cosmos 1980 Rocket 2.5 18:03:58 10° NNW 18:09:25 44° ENE 18:10:40 39° E
USA 267 4.1 18:08:54 22° NE 18:12:32 41° NNW 18:18:32 10° W
Cosmos 1340 Rocket 4.4 18:09:04 10° NNW 18:12:50 37° W 18:16:34 10° SSW
SL-16 R/B 3.9 18:09:30 10° N 18:11:40 16° NNE 18:11:40 16° NNE
Meteor 2-14 Rocket 4.3 18:08:07 10° N 18:14:16 86° E 18:20:21 10° S
Spot 2 4.5 18:14:27 17° SE 18:18:15 56° ENE 18:23:18 10° N
Cosmos 2082 Rocket 2.5 18:13:03 10° S 18:18:23 43° ESE 18:18:33 43° ESE
SKYMED 2 3.7 18:17:49 21° N 18:20:44 74° WNW 18:25:03 10° SSW
USA 276 3.0 18:17:38 10° WNW 18:19:58 47° WNW 18:19:58 47° WNW
Lacrosse 5 rocket 3.2 18:18:53 10° NW 18:20:53 18° N 18:20:53 18° N
Cosmos 1151 Rocket 4.1 18:18:34 10° S 18:20:53 30° SSE 18:20:53 30° SSE
Cosmos 1602 4.4 18:19:00 10° NNW 18:22:46 54° W 18:26:31 10° S
Cosmos 1092 Rocket 4.4 18:16:47 10° NNW 18:23:03 64° W 18:29:18 10° S
COSMOS 2406 3.1 18:18:03 10° SSW 18:23:48 77° ESE 18:26:02 39° NE
Cosmos 1933 4.1 18:20:19 10° SSW 18:24:16 51° WNW 18:27:10 17° N
Cosmos 2278 4.1 18:19:46 10° NNW 18:24:47 42° NE 18:24:47 42° NE
USA 229 DEB 4.0 18:21:24 10° NW 18:28:46 79° SW 18:36:35 10° SSE
USA 229 4.0 18:21:30 10° NW 18:28:52 80° SW 18:36:40 10° SSE
Feng Yun 1-1 Rocket 4.3 18:24:28 10° SSE 18:30:24 82° ENE 18:36:20 10° NNW
Meteor 2-21 Rocket 4.3 18:24:22 10° N 18:30:33 86° E 18:36:37 10° S
Cosmos 372 Rocket 3.8 18:29:31 10° NNW 18:34:46 73° ENE 18:35:14 68° ESE
ATLAS 2AS CENTAUR R/B 4.5 18:31:25 10° NW 18:36:58 21° N 18:39:54 17° NNE
Cosmos 2142 Rocket 4.3 18:31:01 10° S 18:37:09 83° E 18:43:22 10° N
Meteor 2-8 Rocket 4.4 18:32:09 10° S 18:38:09 60° E 18:38:41 58° ENE
USA 306 4.4 18:36:50 10° WNW 18:40:00 27° NNW 18:40:00 27° NNW
Cosmos 1833 Rocket 3.3 18:45:53 10° SW 18:51:22 54° WNW 18:53:36 34° N
Cosmos 2279 Rocket 4.0 18:49:05 10° SSW 18:55:19 77° W 19:01:20 11° N
Meteor 1-14 Rocket 4.5 18:52:07 10° NNW 18:57:52 70° W 19:03:42 10° S
ARGOS 4.4 18:53:03 10° SSW 18:58:08 40° W 19:03:14 10° NNW
H-2A R/B 4.3 18:55:01 10° SW 18:59:10 24° W 19:03:17 10° NW
NOSS 2-2 (D) 4.3 18:57:17 10° NW 19:02:33 87° SW 19:02:49 83° SSE
COSMOS 2455 2.8 19:03:17 10° SW 19:09:04 79° W 19:09:04 79° W
Cosmos 1655 Rocket 4.4 19:05:05 10° N 19:09:57 54° N 19:09:57 54° N
Okean O Rocket 4.1 19:13:39 10° SW 19:17:02 21° W 19:20:26 10° NW
ATLAS CENTAUR R/B 3.5 19:10:14 10° WSW 19:16:49 41° NW 19:16:49 41° NW
CZ-2C R/B 4.4 19:14:34 10° N 19:18:56 28° WNW 19:23:15 10° WSW
CZ-4C R/B 3.0 19:28:17 10° NW 19:35:01 79° WNW 19:35:01 79° WNW
BREEZE-M DEB (TANK) 4.4 19:13:45 10° SW 19:37:06 70° SSE 19:37:06 70° SSE
Cosmos 1980 Rocket 3.8 19:48:18 10° NW 19:52:31 30° W 19:52:31 30° W
Cosmos 2082 Rocket 4.0 19:57:24 10° WSW 20:00:28 26° W 20:00:28 26° W
